Location: Poughquag
(41.6090°N, 73.6820°W)
Time: 14:51:51
(UTC-04:00)

Explorer 11/Cluster Stage 4 - Pass Details

Date: 30 May 2020
Orbit: 467 x 1259 km, 28.8° (Epoch: 05 July)

Event Time Altitude Azimuth Distance (km) Brightness Sun altitude
Rises 08:54:03 0° 246° (WSW) 3,832 9.7 36.8°
Reaches altitude 10° 08:56:59 10° 236° (WSW) 2,981 9.2 37.3°
Maximum altitude 09:03:28 32° 177° (S) 1,957 9.0 38.5°
Drops below altitude 10° 09:10:28 10° 119° (ESE) 3,228 10.7 39.8°
Sets 09:13:46 0° 110° (ESE) 4,193 11.1 40.5°
